Location: Artiguedieu
(43.5000°N, 0.5454°E)
Time: 07:33:14
(UTC+00:00)

Cosmos 2278 Rocket - Pass Details

Date: 06 December 2020
Orbit: 839 x 847 km, 71.0° (Epoch: 20 January)

Event Time Altitude Azimuth Distance (km) Brightness Sun altitude
Rises 05:25:20 0° 202° (SSW) 3,380 5.2 -19.4°
Reaches altitude 10° 05:27:45 10° 203° (SSW) 2,450 4.5 -19.0°
Maximum altitude 05:33:23 89° 118° (ESE) 848 2.2 -18.0°
Drops below altitude 10° 05:39:05 10° 25° (NNE) 2,472 4.7 -17.0°
Sets 05:41:32 0° 26° (NNE) 3,412 5.5 -16.6°
